SCP
0 0 0 0 0 0 0 0 0 0 0 0 0 0 0 0 0 0 0 0 0 0 0 0 0 0 0 0 0 0 0 0 0 0 0 0 0 0 0 0 0 0 0
0 0 0 0 0 0 0 0 0 0 0 0 0 0 0 0 0 0 0 0 0 0 0 0 0 0 0 0 0 0 0 0 0 0 0 0 0 0 0 0 0 0 0
0 0 0 0 0 0 0 0 0 0 0 0 0 0 0 0 0 0 0 0 0 0 0 0 0 0 0 0 0 0 0 0 0 0 0 0 0 0 0 0 0 0 0
0 0 0 0 0 0 0 0 0 0 0 0 0 0 0 0 0 0 0 0 0 0 0 0 0 0 0 0 0 0 0 0 0 0 0 0 0 0 0 0 0 0 0
0 0 0 0 0 0 0 0 0 0 0 0 0 0 0 0 0 0 0 0 0 0 0 0 0 0 0 0 0 0 0 0 0 0 0 0 0 0 0 0 0 0 0
0 0 0 0 0 0 0 0 0 0 0 0 0 0 0 0 0 0 0 0 0 0 0 0 0 0 0 0 0 0 0 0 0 0 0 0 0 0 0 0 0 0 0
0 0 0 0 0 0 0 0 0 0 0 0 0 0 0 0 0 0 0 0 0 0 0 0 0 0 0 0 0 0 0 0 0 0 0 0 0 0 0 0 0 0 0
0 0 0 0 0 0 0 0 0 0 0 0 0 0 0 0 0 0 0 0 0 0 0 0 0 0 0 0 0 0 0 0 0 0 0 0 0 0 0 0 0 0 0
0 0 0 0 0 0 0 0 0 0 0 0 0 0 0 0 0 0 0 0 0 0 0 0 0 0 0 0 0 0 0 0 0 0 0 0 0 0 0 0 0 0 0
0 0 0 0 0 0 0 0 0 0 0 0 0 0 0 0 0 0 0 0 0 0 0 0 0 0 0 0 0 0 0 0 0 0 0 0 0 0 0 0 0 0 0
1 1 0 1 1 0 0 1 1 0 0 0 0 0 0 0 0 0 0 0 0 0 0 0 0 0 0 0 0 0 0 0 0 0 0 0 1 0 0 0 0 0 0
1 1 1 1 1 1 1 1 1 1 1 1 1 1 1 1 1 1 1 1 1 0 0 0 0 0 0 0 0 0 0 0 0 0 0 1 1 0 0 0 0 0 0
1 1 1 1 1 1 1 1 1 1 1 1 1 1 1 1 1 1 1 1 1 1 0 0 0 0 0 0 0 0 0 0 0 0 1 1 1 0 0 0 0 0 0
2 2 1 1 1 1 1 1 1 1 1 1 1 1 1 1 1 1 1 1 1 1 1 1 1 1 0 0 0 0 0 0 0 0 1 1 1 0 0 0 0 0 0
2 2 2 2 2 2 2 2 1 1 1 1 2 2 2 2 2 2 1 1 1 1 1 1 1 1 1 0 0 0 0 0 0 0 1 1 1 0 0 0 0 0 0
2 2 2 2 2 2 2 2 2 2 1 1 2 2 2 2 2 2 2 2 1 1 1 1 1 1 1 1 0 0 0 0 0 0 0 1 0 0 0 0 0 0 0
2 2 2 2 2 2 2 2 2 2 1 1 1 2 2 1 2 2 2 2 1 1 1 1 1 1 1 1 0 0 0 0 0 0 0 0 0 0 0 0 0 0 0
2 2 2 2 2 2 2 2 2 1 1 1 1 1 1 1 1 2 2 2 2 1 1 1 1 1 1 1 1 0 0 0 0 0 0 0 0 0 0 0 0 0 0
2 2 2 2 2 2 2 2 1 1 1 1 1 1 1 1 1 1 1 1 1 1 1 1 1 1 1 1 0 0 0 0 0 0 0 0 0 0 0 0 0 0 0
2 2 2 2 2 2 1 1 1 1 1 1 1 1 1 1 1 1 1 1 1 1 1 1 1 1 1 1 0 0 0 0 0 0 0 0 0 0 0 0 0 0 0
2 2 2 2 1 1 1 1 1 1 1 1 1 1 1 1 1 1 1 1 1 1 1 1 1 1 1 1 0 0 0 0 0 0 0 0 0 0 0 0 0 0 0
1 1 1 1 1 1 1 1 1 1 1 1 1 1 1 0 1 1 1 1 1 1 1 1 1 1 1 1 0 0 0 0 0 0 0 0 0 0 0 0 0 0 0
1 1 0 1 0 0 0 0 1 1 1 1 1 1 0 0 0 0 1 1 1 1 1 1 1 1 1 1 0 0 0 0 0 0 0 0 0 0 0 0 0 0 0
0 0 0 0 0 0 0 0 0 0 0 0 0 0 0 0 0 0 0 1 1 1 1 1 1 1 1 1 1 0 0 0 0 0 0 0 0 0 0 0 0 0 0
0 0 0 0 0 0 0 0 0 0 0 0 0 0 0 0 0 0 0 0 0 1 1 1 1 1 1 1 1 1 0 0 0 0 0 0 0 0 0 0 0 0 0
0 0 0 0 0 0 0 0 0 0 0 0 0 0 0 0 0 0 0 0 0 0 1 1 1 1 1 1 1 1 1 0 0 0 0 0 0 0 0 0 0 0 0
Wind_Speed
15 19 22 19 17 16 15 14 15 15 15 15 14 14 14 13 12 11 11 10 9 8 8 8 8 9 9 9 9 10 10 10 10 11 11 11 10 10 11 10 9 11 12
18 21 22 19 18 17 15 15 14 14 15 15 14 14 13 13 12 11 10 9 9 8 8 8 8 8 8 9 9 9 10 10 10 10 10 11 9 9 9 6 3 11 11
20 21 21 19 18 17 16 15 15 14 14 14 14 13 13 12 12 11 10 9 8 8 8 7 7 8 8 8 8 8 8 8 8 8 9 9 11 8 7 6 9 12 10
20 20 19 20 19 17 16 15 15 14 14 14 13 13 12 12 11 10 10 9 8 8 7 7 7 7 7 7 8 7 7 7 7 8 8 6 9 11 8 8 8 9 10
19 19 19 21 19 18 17 16 15 14 14 13 13 12 11 11 10 10 9 9 8 8 7 7 7 7 7 7 7 7 6 6 6 10 4 4 6 11 8 8 9 9 9
19 18 20 21 19 18 17 16 15 14 13 13 12 11 11 10 10 9 9 8 8 7 7 7 7 7 7 7 7 7 6 6 9 7 5 5 6 10 8 9 9 10 9
19 17 20 20 19 18 17 15 15 14 13 12 12 11 10 10 10 9 9 8 8 7 7 7 7 7 7 7 7 7 7 7 10 5 5 5 5 9 8 9 10 10 10
17 17 18 18 17 16 16 15 14 13 13 12 11 11 10 9 9 9 9 9 8 8 8 7 7 7 7 8 8 8 8 10 11 8 7 6 8 7 8 10 10 11 11
15 15 16 17 16 16 15 14 13 13 12 11 11 10 10 9 9 9 9 9 9 9 9 8 9 9 9 9 10 10 10 11 12 8 8 7 11 9 10 11 12 13 13
14 14 14 15 15 14 14 14 13 12 12 11 11 10 10 10 10 10 10 11 10 10 10 10 10 10 10 11 11 12 11 11 14 12 8 6 12 11 11 11 13 13 14
13 12 13 14 13 13 13 13 14 12 12 11 11 12 11 11 11 11 13 10 11 11 11 11 11 11 11 13 14 13 12 10 12 10 7 8 12 11 12 12 12 13 15
15 14 12 12 12 11 9 9 9 10 10 10 9 10 10 9 7 8 5 8 11 12 13 13 13 13 13 10 13 15 10 12 11 8 6 10 11 12 13 13 13 13 14
15 14 12 11 11 10 7 7 6 6 6 9 10 10 8 7 6 7 6 8 10 12 11 11 12 11 10 8 7 8 10 9 7 6 6 11 12 14 15 14 13 14 14
14 14 13 12 11 9 8 6 6 6 5 6 8 9 8 6 7 6 6 6 6 5 7 7 6 9 10 10 10 10 10 8 7 6 5 12 13 14 14 14 14 15 15
13 13 13 12 11 10 8 6 6 6 5 6 6 7 9 7 8 7 6 6 7 6 7 7 7 8 9 9 10 10 10 10 10 9 5 11 13 13 14 14 14 15 15
12 13 12 12 11 10 8 7 6 6 5 6 6 8 9 8 7 7 7 7 7 6 6 6 8 8 8 7 9 10 10 10 9 10 9 9 14 14 13 14 14 14 15
9 10 11 10 9 9 8 8 6 5 6 7 7 8 9 9 8 7 7 7 6 6 6 6 7 7 8 8 10 10 9 10 10 9 10 8 8 14 15 14 13 13 14
5 6 7 6 6 6 5 5 5 5 7 7 6 7 8 8 8 7 7 7 6 6 5 5 6 7 7 7 7 7 8 8 10 10 10 9 8 8 13 16 14 13 13
3 5 5 4 4 4 4 4 6 6 6 6 6 6 6 7 8 8 7 6 7 5 5 6 6 6 7 7 7 8 8 8 8 9 10 10 9 8 8 11 14 12 13
5 5 4 2 1 2 3 3 4 6 5 5 5 5 6 6 8 8 7 7 7 5 5 6 6 6 6 6 8 7 7 7 7 8 9 9 8 10 10 9 9 12 14
6 5 4 2 1 0 1 3 4 4 4 4 3 4 6 7 8 8 8 7 7 6 7 7 6 7 7 5 6 7 7 8 7 6 7 7 8 9 8 7 8 7 8
5 4 3 2 1 1 2 3 3 3 2 2 2 3 5 6 6 7 8 6 6 5 7 7 7 7 6 5 5 5 5 6 6 6 6 7 7 6 7 8 7 7 7
4 3 2 1 1 2 3 3 2 2 3 2 2 2 3 3 4 5 6 6 6 7 7 7 8 9 7 6 6 6 5 4 4 5 6 5 5 5 6 5 7 7 8
3 2 2 1 1 1 2 2 2 2 2 2 2 1 2 2 2 3 4 4 5 6 6 8 9 7 8 7 6 6 6 5 4 4 6 6 6 6 5 5 5 6 7
1 1 0 0 1 2 3 2 3 2 2 1 2 1 2 1 2 2 2 3 4 5 6 7 6 7 7 8 6 6 7 5 7 6 4 5 6 6 5 5 4 4 5
2 3 2 2 3 3 4 4 4 3 3 3 3 3 3 2 2 2 2 2 3 4 4 5 5 8 7 8 7 7 6 7 7 7 6 6 5 4 4 3 4 4 4
Wind_Direction
160 152 154 164 164 162 160 156 155 156 157 158 157 156 157 156 156 155 153 149 144 137 129 121 117 117 117 116 117 116 115 115 116 117 118 118 119 120 122 131 151 116 115
153 149 155 163 165 164 161 158 155 155 157 159 159 158 158 159 159 158 158 156 152 146 138 129 124 122 122 121 120 121 122 124 125 125 130 129 125 123 128 136 57 106 127
150 148 157 163 165 165 163 159 157 158 159 160 160 161 161 162 163 163 163 162 160 154 146 141 135 130 128 127 126 128 130 132 133 142 177 156 130 135 135 126 104 122 132
150 152 160 161 166 167 165 163 161 161 161 161 162 163 165 166 168 168 168 168 167 161 156 153 148 142 138 136 137 138 140 142 148 181 198 135 137 135 149 142 137 141 141
152 155 155 163 168 169 168 167 166 165 165 165 166 168 170 171 173 174 173 174 175 170 167 165 162 156 151 150 150 152 154 159 174 224 147 136 129 137 159 161 159 157 155
156 158 153 166 169 171 171 171 170 169 169 170 171 173 175 178 181 182 181 182 182 181 180 178 176 171 167 166 167 170 174 180 210 208 161 178 139 145 171 176 176 172 170
160 158 155 169 171 173 174 175 174 173 173 175 177 180 183 186 189 192 191 192 192 193 193 192 191 188 185 183 186 189 194 204 241 207 192 198 137 142 184 188 190 186 182
162 160 154 168 173 175 176 178 178 178 179 181 183 186 191 195 198 202 202 203 205 208 209 208 206 205 203 200 200 203 208 227 231 226 217 207 136 162 204 204 197 197 196
165 163 159 169 175 178 180 182 183 184 185 188 191 195 200 205 209 213 215 217 217 218 220 220 219 218 217 214 212 212 215 227 256 235 224 215 150 183 213 215 207 202 202
170 170 169 173 176 180 182 184 189 191 193 196 201 205 210 216 220 222 226 218 226 230 230 231 231 230 227 223 221 220 221 225 240 240 226 193 154 192 216 221 217 209 205
177 177 179 175 180 187 188 178 189 195 200 205 207 210 217 225 221 213 223 212 225 236 239 240 239 239 238 229 227 225 224 234 232 241 231 157 164 200 220 224 222 216 209
181 182 185 181 184 190 192 178 197 201 196 212 217 211 217 227 238 242 199 213 233 241 244 242 243 242 239 236 218 215 228 230 245 234 220 154 181 210 223 226 225 222 214
181 184 186 186 190 194 193 192 202 209 204 213 221 222 230 235 230 235 229 211 223 233 239 231 231 238 238 242 243 224 232 236 234 239 213 170 196 216 223 224 224 224 220
183 187 186 187 188 198 201 202 211 217 216 224 218 227 230 233 240 240 238 240 233 236 243 249 245 245 245 245 243 243 239 235 239 236 210 182 204 218 223 225 223 222 222
185 188 188 190 190 193 201 214 217 229 236 236 239 231 238 239 237 238 242 242 244 245 243 244 251 253 252 250 250 247 247 245 244 239 220 189 204 215 222 226 225 225 222
189 190 189 192 192 193 200 210 221 228 237 251 246 243 239 241 243 242 242 242 246 247 254 256 256 255 252 250 249 246 246 246 243 242 240 210 204 212 219 225 225 224 223
192 187 188 190 193 199 209 221 231 236 246 247 245 244 243 243 243 244 248 247 246 247 247 248 256 259 252 246 245 246 245 244 242 240 244 244 218 207 210 218 223 222 220
172 167 173 177 181 200 214 240 251 251 250 253 253 248 243 242 239 241 242 245 244 241 240 241 242 248 252 254 252 251 248 241 243 240 238 232 234 228 205 206 214 217 219
121 132 147 157 174 207 214 233 249 249 249 252 253 250 240 241 241 240 243 245 241 240 239 247 238 244 248 249 250 243 246 244 243 242 241 238 231 231 233 193 200 212 219
83 96 113 131 163 214 226 230 248 251 251 250 255 253 247 240 242 243 242 239 241 241 242 241 245 241 252 250 255 256 247 246 242 240 241 237 231 228 229 228 209 208 210
75 83 91 95 94 223 243 258 258 261 267 273 268 270 265 254 240 237 243 229 233 241 250 250 244 235 238 239 246 248 239 234 237 238 236 241 228 224 226 225 231 229 200
79 90 98 103 144 242 251 265 268 282 277 276 286 287 278 266 247 237 239 239 230 238 243 246 243 248 238 221 239 249 238 210 209 221 220 220 228 219 216 216 223 224 237
67 65 78 65 358 317 291 269 260 236 244 251 250 251 271 273 258 258 251 250 239 232 230 232 234 235 237 224 228 247 252 238 187 186 211 213 212 222 223 216 217 217 224
57 54 66 61 49 309 273 282 293 299 298 299 287 284 283 293 288 275 268 261 256 246 235 235 231 232 235 234 213 233 262 303 261 194 193 192 200 216 229 233 224 215 222
3 329 281 214 222 256 273 265 263 272 278 272 281 271 276 271 275 277 278 269 263 258 245 243 237 236 232 239 233 218 219 225 244 256 218 193 198 206 208 224 232 231 222
281 270 264 256 258 263 267 271 272 274 274 275 269 273 264 260 255 272 276 267 260 260 242 237 242 239 244 244 245 237 225 222 222 231 232 221 217 206 203 228 235 224 215